Regional Weather Roundup
Issued by NWS Green Bay, WI

Home | Current Version | Previous Version | Graphics & Text | Print | Product List | Glossary Off
Versions: 1 2 3 4 5 6 7 8 9 10 11 12 13 14 15 16 17 18 19 20 21 22 23 24 25 26 27 28 29 30 31 32 33 34 35 36 37 38 39 40 41 42 43 44 45 46 47 48 49 50

000
ASUS43 KGRB 152210
RWRGRB

NORTH-CENTRAL AND NORTHEAST WISCONSIN REGIONAL WEATHER ROUNDUP
NATIONAL WEATHER SERVICE GREEN BAY WI
500 PM CDT TUE APR 15 2014

WIZ005-009-010>012-018-019-152300-
NORTH CENTRAL WISCONSIN

CITY           SKY/WX    TMP DP  RH WIND       PRES   REMARKS
IRONWOOD       SUNNY     27   7  43 NW6       30.01S
MANITOWISH WTR MOSUNNY   27   2  34 W9        30.01R
ARBOR VITAE    MOSUNNY   34   7  32 W7        30.01R
EAGLE RIVER    PTSUNNY   27   4  37 NW6       30.01R
LAND O LAKES   PTSUNNY   28   3  34 NW7       30.01S
RHINELANDER    PTSUNNY   27   5  39 W14G22    30.01S
PHILLIPS       SUNNY     31   4  31 NW9G16    30.01S
ANTIGO         PTSUNNY   28  10  46 W12G20    30.03S
TOMAHAWK       MOSUNNY   29   3  34 W6        30.02S
MERRILL        MOSUNNY   31   7  35 CALM      30.04S
$$

WIZ013-073-152300-
NORTHEAST WISCONSIN

CITY           SKY/WX    TMP DP  RH WIND       PRES   REMARKS
IRON MOUNTAIN  CLOUDY    29  11  47 W14G20    30.01S
MARINETTE      PTSUNNY   30  18  59 W6        30.06R
OCONTO         MOSUNNY   32  17  54 W8        30.08R
$$

WIZ017-030-035>037-045-152300-
CENTRAL WISCONSIN

CITY           SKY/WX    TMP DP  RH WIND       PRES   REMARKS
MEDFORD        PTSUNNY   29  11  46 W9        30.03S
WAUSAU         MOSUNNY   29  10  45 W8        30.04S
MOSINEE        PTSUNNY   28  10  47 W5        30.07S
MARSHFIELD     MOSUNNY   31  11  43 W8        30.05F
WISC RAPIDS    PTSUNNY   31  10  41 VRB7      30.09S
STEVENS POINT  CLOUDY    29  10  44 W8        30.08S
WAUPACA        PTSUNNY   32  14  47 W7        30.10R
SHAWANO        PTSUNNY   32  15  49 NW8       30.08S
CLINTONVILLE   CLOUDY    32  14  47 W13       30.09R
$$

WIZ038-039-048-051-152300-
FOX VALLEY

CITY           SKY/WX    TMP DP  RH WIND       PRES   REMARKS
NWS GREEN BAY  MOSUNNY   32  18  56 W13       30.09S
APPLETON       PTSUNNY   30  12  47 NW10      30.09S
OSHKOSH        CLOUDY    31  18  58 W8        30.10S
FOND DU LAC    PTSUNNY   32  17  54 NW10      30.11R
$$

WIZ022-050-052-152300-
EAST CENTRAL WISCONSIN

CITY           SKY/WX    TMP DP  RH WIND       PRES   REMARKS
STURGEON BAY   PTSUNNY   30  16  55 W9        30.08S
MANITOWOC      PTSUNNY   32  15  49 W16       30.11R
SHEBOYGAN      PTSUNNY   32  15  49 W12       30.11R
$$

LMZ563-521-522-541>543-152300-
LAKESHORE

STATION/POSITION TIME  TEMP    WIND        PRES    VSBY  WAVE
                       AIR SEA DIR/SP/G                  HT/PER
                 (UTC) (F)     (DEG/KT/KT) (MB)    (MI)  (FT/S)
SHEBOYGAN LKSHOR 2200   33     260/  8/ 10 1020.8R
KEWAUNEE LKSHORE 2200   30     270/ 11/ 15 1019.7R
TWO RIVERS CG    2100   32                   N/A       6   1
NORTHPORT PIER   2200   29     260/  6/ 11 1018.3S
SISTER BAY LKSHO 2200   42     280/ 10/ 11   N/A
STURGEON BAY CG  2100   33     310/  5     1018.8      6   2
MENOMINEE LKSHOR 2200   31     280/ 13/ 18 1018.9R
$$



USA.gov is the U.S. government's official web portal to all federal, state and local government web resources and services.